Riverside, CA

5:16 AM PDT on October 21, 2017 (GMT -0700)
Riverside Municipal

Weather History for KRAL - August, 2015

Change the Weather History Date:

Friday, August 21, 2015

  Actual Average Record
Temperature  
Mean Temperature 78 °F 79 °F  
Max Temperature 89 °F 94 °F 108 °F (1982)
Min Temperature 66 °F 64 °F 47 °F (1916)
Degree Days  
Heating Degree Days 0 0  
Month to date heating degree days 0 0  
Since 1 June heating degree days 0 2  
Since 1 July heating degree days 0 0  
Cooling Degree Days 13 14  
Month to date cooling degree days 333 309  
Year to date cooling degree days 1418 1121  
Since 1 June cooling degree days 1109 944  
Growing Degree Days 27 (Base 50)    
Moisture  
Dew Point 61 °F    
Average Humidity 64    
Maximum Humidity 87    
Minimum Humidity 40    
Precipitation  
Precipitation 0.00 in 0.00 in 0.03 in (1982)
Month to date precipitation 0.01 0.08  
Year to date precipitation 4.47 9.34  
Sea Level Pressure  
Sea Level Pressure 29.84 in    
Wind  
Wind Speed 4 mph (WSW)    
Max Wind Speed 14 mph    
Max Gust Speed 20 mph    
Visibility 9 miles    
Events      
T = Trace of Precipitation, MM = Missing Value Source: NWS Daily Summary

Daily Weather History Graph

Daily Weather History Graph

Search for Another Location

Airport or City:

Trip Planner

Search our weather history database for the weather conditions in past years. The results will help you decide how hot, cold, wet, or windy it might be!

Date:

Astronomy

Aug. 21, 2015 Rise Set
Actual Time 6:15 AM PDT 7:29 PM PDT
Civil Twilight 5:49 AM PDT 7:55 PM PDT
Nautical Twilight 5:18 AM PDT 8:26 PM PDT
Astronomical Twilight 4:46 AM PDT 8:58 PM PDT
Moon 12:30 PM PDT 11:33 PM PDT
Length of Visible Light 14h 06m
Length of Day
13h 14m
Waxing Crescent, 40% of the Moon is Illuminated
Aug 21
Waxing Crescent
Aug 22
First Quarter
Aug 29
Full
Sep 5
Last Quarter
Sep 12
New

Hourly Weather History & Observations

Time (PDT) Temp. Heat Index Dew Point Humidity Pressure Visibility Wind Dir Wind Speed Gust Speed Precip Events Conditions
12:53 AM 68.0 °F - 61.0 °F 78% 29.83 in 10.0 mi West 4.6 mph - N/A   Clear
1:53 AM 66.9 °F - 61.0 °F 81% 29.82 in 9.0 mi West 3.5 mph - N/A   Clear
2:28 AM 66.9 °F - 61.0 °F 81% 29.87 in 8.0 mi West 3.5 mph - N/A   Mostly Cloudy
2:53 AM 66.9 °F - 62.1 °F 84% 29.82 in 8.0 mi West 3.5 mph - N/A   Overcast
3:41 AM 66.9 °F - 62.1 °F 84% 29.87 in 8.0 mi Calm Calm - N/A   Overcast
3:53 AM 66.9 °F - 62.1 °F 84% 29.82 in 8.0 mi West 3.5 mph - N/A   Overcast
4:53 AM 68.0 °F - 62.1 °F 81% 29.81 in 9.0 mi Calm Calm - N/A   Overcast
5:53 AM 68.0 °F - 62.1 °F 81% 29.82 in 8.0 mi Calm Calm - N/A   Overcast
6:53 AM 68.0 °F - 62.1 °F 81% 29.84 in 6.0 mi Calm Calm - N/A   Haze
7:53 AM 69.1 °F - 62.1 °F 78% 29.86 in 6.0 mi SE 3.5 mph - N/A   Haze
8:53 AM 70.0 °F - 62.1 °F 76% 29.88 in 6.0 mi Calm Calm - N/A   Haze
9:44 AM 70.0 °F - 62.1 °F 76% 29.92 in 7.0 mi South 5.8 mph - N/A   Overcast
9:53 AM 70.0 °F - 61.0 °F 73% 29.88 in 7.0 mi SSE 6.9 mph - N/A   Overcast
10:53 AM 72.0 °F - 61.0 °F 68% 29.88 in 9.0 mi Calm Calm - N/A   Scattered Clouds
11:53 AM 78.1 °F - 61.0 °F 56% 29.86 in 10.0 mi Variable 4.6 mph - N/A   Clear
12:53 PM 80.1 °F 81.1 °F 61.0 °F 52% 29.84 in 10.0 mi Calm Calm - N/A   Clear
1:53 PM 84.9 °F 85.4 °F 62.1 °F 46% 29.83 in 10.0 mi West 9.2 mph - N/A   Clear
2:53 PM 87.1 °F 86.7 °F 60.1 °F 40% 29.81 in 10.0 mi West 8.1 mph - N/A   Clear
3:53 PM 88.0 °F 87.9 °F 61.0 °F 40% 29.79 in 10.0 mi West 11.5 mph - N/A   Clear
4:53 PM 86.0 °F 86.1 °F 61.0 °F 43% 29.78 in 10.0 mi West 12.7 mph 19.6 mph N/A   Clear
5:53 PM 82.0 °F 82.7 °F 61.0 °F 49% 29.79 in 10.0 mi West 12.7 mph 20.7 mph N/A   Clear
6:53 PM 79.0 °F - 61.0 °F 54% 29.79 in 10.0 mi West 8.1 mph - N/A   Clear
7:53 PM 75.0 °F - 61.0 °F 62% 29.81 in 10.0 mi West 8.1 mph - N/A   Clear
8:53 PM 73.0 °F - 61.0 °F 66% 29.83 in 10.0 mi West 6.9 mph - N/A   Clear
9:53 PM 71.1 °F - 61.0 °F 70% 29.85 in 10.0 mi West 5.8 mph - N/A   Clear
10:53 PM 69.1 °F - 61.0 °F 75% 29.86 in 10.0 mi West 4.6 mph - N/A   Clear
11:53 PM 68.0 °F - 61.0 °F 78% 29.85 in 10.0 mi West 3.5 mph - N/A   Clear